STARLINK-1099 (44918 NORAD) Tracking and Keplerian Element Data

This shows tracking and keplerian element data for the satellite.

Feedback or suggestion? Click here.




ElementValue
Catalog44918
NameSTARLINK-1099
Epoch Orbit716
Epoch Day48.41667824
Epoch Year2020
RAAN198.0209
Inclination52.9998
Eccentricity0.0001428
Argument of Perigee63.589
Mean Anonmoly312.8868
Mean Motion15.13319685
Decay Rate-0.0008986
L11 44918U 20001E 20048.41667824 -.00089860 00000-0 -50321-2 0 9997
L22 44918 52.9998 198.0209 0001428 63.5890 312.8868 15.13319685 7167

Live tracking and technical data element details for STARLINK-1099 (NORAD 44918). STARLINK-1099 can be tracked NOW for your location showing map with azimuth and elevation plus other details from your city location.

Track the satellite on the map from your city or location and see movement details for azimuth, elevation, latitude, longitude, range, height, and movement on the map or in text.







IsCatalogInMostPopularTable: catalog: 44918, numindb: 9
Update: records affected: 1



GetName: 44918 STARLINK-1099

Hit Count: updated at: Tue, 18 Feb 2020 01:10:38 GMT